Main page
METAR-TAF:

METAR-TAF

Airports :

Noshahr, Iran

Noshahr Airport

latitude: 36-39-48N, longitude: 051-27-53E, elevation: 0 m

Current weather observation

The report was made 52 minutes ago, at 09:00 UTC
Wind 4 kt from the North/Northeast
Temperature 21°C
Humidity 69%
Pressure 1011 hPa
Visibility 10 km or more
no clouds below 1500 m and no cumulonimbus

METAR: OINN 220900Z 02004KT CAVOK 21/15 Q1011

Time: 13:22 (09:52 UTC)


TAF: missing

Weather observations and forecasts of more than 4000 airports (METAR and TAF reports).

The available stations are represented by yellow and red dots on the map.

Hover mouse over dot to see the name of the station.

Then click to see weather observations and forecasts.

To change the map : click on the green buttons with a black cross to zoom in, on the green button with a dash to zoom out, or on the green arrows for adjacent maps.


METAR-TAF: